Location: Clyde
(45.1830°S, 169.3170°E)
Time: 14:06:30
(UTC+12:00)

Mayak - Pass Details

Date: 24 January 2019
Orbit: 584 x 601 km, 97.6° (Epoch: 22 April)

Event Time Altitude Azimuth Distance (km) Brightness Sun altitude
Exits shadow 22:46:09 14° 79° (E) 1,678 0.6 -12.6°
Maximum altitude 22:48:15 20° 116° (ESE) 1,411 0.5 -12.9°
Drops below altitude 10° 22:51:19 10° 162° (SSE) 1,955 1.8 -13.3°
Sets 22:53:58 0° 178° (S) 2,869 3.0 -13.6°
